sat.trackr.live / text

‹ back to catalog

STARLINK-31211

NORAD 59031 · 2024-038J

PAYLOAD ACTIVE UNKNOWN

§ Identity

Operator
Country
US
Launch date
2024-02-25
Launch site
AFETR
Launch vehicle
Mass (kg)
RCS (m²)

Purposes: comms

External: N2YO · Heavens-Above · Gunter

§ Orbital elements

Epoch: 2026-09-20T07:04:41.933856Z

Period
94.27 min
Inclination
43.0066°
Eccentricity
0.0001901
Mean motion
15.27580499 rev/d
Perigee alt
481.7 km
Apogee alt
484.4 km
Semi-major
6,861.2 km
B*
1.5336e-5
RAAN
7.7209°
Arg perigee
283.1217°
Mean anomaly
76.9423°
Rev number
14,441

§ Raw data

STARLINK-312111 59031U 24038J   26263.29492979  .00000160  00000+0  15336-4 0  99932 59031  43.0066   7.7209 0001901 283.1217  76.9423 15.27580499144414

JSON: /api/v1/satellites/59031 · /tle

For live sub-satellite position, see the globe view (requires WebGL).

§ Visibility from observer

Set your observer location to see the next 7 days of passes ≥ 10°. The values pass through the URL so the page stays shareable.

No JS? Fill the form by hand. The geolocation button needs JavaScript.